Cloud_Cover
100 84 2 4 5 5 5 5 49 30 5 47 52 24 44 20 34 40 50 29 15 28 21 11 2 4 34 22 5 0 1 97 21 0 0 0 1 80 37 66 2 0 0
8 13 88 60 86 20 66 58 48 59 100 40 97 57 76 48 99 87 52 14 6 36 6 50 42 0 0 0 16 4 8 18 2 0 0 3 0 2 1 1 2 12 43
100 100 100 100 68 49 68 96 82 100 40 78 67 88 64 52 54 5 5 17 84 100 100 100 7 0 0 0 0 0 0 0 0 0 1 0 2 0 2 24 16 8 22
96 90 99 55 79 98 90 98 54 100 95 100 100 100 87 92 82 100 94 100 100 100 10 4 0 0 0 0 0 0 0 0 0 0 0 0 0 0 0 5 5 31 100
100 100 64 48 92 98 100 96 91 100 100 100 100 100 100 100 100 100 100 99 18 31 37 19 23 16 0 0 0 0 0 0 0 0 12 4 14 4 2 1 14 5 100
71 97 47 84 98 100 100 99 100 100 100 100 100 100 100 100 100 100 82 79 100 64 100 100 99 100 50 100 18 9 38 67 9 2 0 0 0 0 0 0 0 76 100
71 36 100 87 88 100 100 100 100 100 100 100 100 100 100 100 31 84 100 100 100 100 100 100 53 94 59 100 83 94 70 26 32 17 5 0 0 0 0 0 0 53 98
33 61 100 100 100 100 100 100 100 100 100 100 100 100 100 100 100 100 100 99 73 84 96 100 95 86 100 100 99 22 7 41 47 7 10 14 0 0 0 1 10 100 100
100 100 100 100 100 100 100 100 100 100 100 100 100 100 100 100 100 100 100 100 44 10 53 100 100 100 100 97 86 98 68 6 0 4 9 22 33 20 10 3 98 100 100
100 100 100 100 100 100 100 100 100 100 100 100 100 100 100 100 100 72 19 0 11 34 91 100 100 93 47 95 100 100 100 88 74 44 80 100 59 50 100 94 100 100 100
100 100 100 100 100 100 100 100 100 100 100 55 46 61 15 4 2 0 0 6 7 59 100 25 95 99 100 100 100 100 100 100 100 99 100 100 100 100 96 100 100 100 100
89 100 100 100 100 100 100 100 88 35 27 28 2 1 1 6 0 0 0 0 0 58 92 84 80 62 80 100 100 99 100 100 100 100 100 100 100 100 100 100 100 100 100
100 100 100 100 100 100 8 3 6 6 10 5 2 0 0 0 0 0 0 0 16 50 54 38 68 100 79 100 100 78 100 100 100 100 100 100 100 100 100 100 100 100 100
4 4 67 80 11 4 5 4 5 5 5 0 0 0 0 0 0 0 0 0 0 12 87 10 47 40 84 70 52 100 100 100 100 100 100 100 100 100 100 100 100 100 100
85 100 99 13 5 5 6 5 5 1 16 0 3 3 0 0 6 34 29 1 1 4 100 28 36 79 91 60 70 21 100 100 100 100 100 100 100 100 100 100 100 100 100
90 74 10 65 72 10 4 5 5 4 5 5 45 41 0 0 4 0 0 0 0 18 82 44 6 15 79 100 100 74 48 87 100 100 100 100 100 100 100 100 100 100 100
33 5 41 28 5 5 5 30 14 5 1 1 3 0 21 1 4 0 0 2 10 88 100 36 13 32 5 10 96 68 100 98 54 100 98 100 100 100 100 100 100 100 100
5 16 21 25 15 20 26 6 3 9 7 8 20 1 0 0 0 0 0 94 96 99 27 45 99 7 26 34 5 5 5 5 82 93 100 100 100 100 100 100 100 100 100
94 67 55 26 5 4 5 5 10 14 5 13 19 37 31 0 3 24 82 100 100 96 78 96 72 100 100 100 100 70 26 5 37 30 6 100 100 100 100 100 100 100 100
23 6 3 5 5 5 18 74 94 34 1 32 42 76 73 18 100 83 100 100 100 100 77 70 78 97 81 100 100 100 100 98 94 36 5 82 100 100 100 100 100 100 100
9 5 5 5 18 25 81 100 79 94 82 80 57 27 0 0 98 53 100 37 53 100 100 100 99 100 95 65 98 100 99 95 99 99 100 88 100 100 100 100 100 100 100
6 30 6 5 6 90 100 100 100 82 100 92 96 61 2 16 64 100 91 46 75 74 42 78 70 33 95 100 50 74 100 100 64 72 97 100 100 100 100 100 100 100 100
72 99 100 100 68 99 90 100 100 59 100 70 81 50 89 26 100 91 68 84 91 37 70 28 99 69 92 93 39 68 90 100 97 85 94 100 100 100 100 100 100 100 100
43 100 100 100 100 96 94 97 62 20 99 99 50 98 100 79 84 89 38 22 96 89 91 49 74 9 14 56 27 95 100 100 86 80 96 91 100 98 100 100 100 100 100
40 92 100 100 100 93 11 98 6 65 64 81 88 100 100 66 85 100 17 100 12 93 59 47 11 49 32 12 10 99 100 100 100 100 100 100 100 100 100 100 100 100 100
100 73 74 100 99 2 0 37 53 77 100 100 100 99 94 94 100 100 51 19 100 88 43 17 18 12 4 59 54 52 100 100 100 100 100 100 100 100 100 100 100 100 100